Вернуться в каталог

SL-12 DEB

АктивенHEO
NORAD 43527·DEBRIS·🇷🇺 Russia

Запущен Mar 1, 2010 с Baikonur Cosmodrome

Loading…

Ближайшие Пролёты (ближайшие 24 часа)

TLE

СвежийSource: Space-Track

Эпоха: Sep 13, 2026, 23:20 UTC

1 43527U 10007Z   26256.97222724 -.00000233  00000-0 -41741-2 0  9994
2 43527  65.0295 155.0333 5537315 291.5421  19.7032  4.26530308127758

Отслеживайте SL-12 DEB в реальном времени с AllMySat

Download on the App Store